Regional Weather Roundup
Issued by NWS

Home | Current Version | Previous Version | Text Only | Print | Product List | Glossary On
Versions: 1 2 3 4 5 6 7 8 9 10 11 12 13 14 15 16 17 18 19 20 21 22 23 24 25 26 27 28 29 30 31 32 33 34 35 36 37 38 39 40 41 42 43 44 45 46 47 48 49 50
000
ASUS44 KJAN 201110
RWRMS

MISSISSIPPI HOURLY WEATHER ROUNDUP
NATIONAL WEATHER SERVICE JACKSON MS
500 AM CST SAT JAN 20 2018

NOTE: "FAIR: INDICATES FEW OR NO CLOUDS BELOW 12,000 FEET WITH NO
SIGNIFICANT WEATHER AND/OR OBSTRUCTIONS TO VISIBILITY.

MSZ001>002-007>008-010>013-018>021-025>028-034>036-201200-
NORTHWEST MISSISSIPPI

CITY           SKY/WX    TMP DP  RH WIND       PRES   REMARKS
BATESVILLE     CLOUDY    42  26  53 CALM      30.20S
CLARKSDALE     CLOUDY    39  30  70 S7        30.18S WCI  34
CLEVELAND      CLOUDY    42  29  60 S8        30.18S
GREENWOOD      CLOUDY    45  28  51 S6        30.21S
GREENVILLE     CLOUDY    43  27  53 S7        30.17S
OXFORD         CLOUDY    43  25  49 S6        30.21S
TUNICA           N/A     37  28  70 S5        30.19R WCI  34
WINONA         CLOUDY    40  31  72 CALM      30.21S
$$

MSZ003>006-009-014>017-022>024-029>033-037>039-201200-
NORTHEAST MISSISSIPPI

CITY           SKY/WX    TMP DP  RH WIND       PRES   REMARKS
ABERDEEN         N/A     46  30  53 S5        30.24R
COLUMBUS AFB   CLOUDY    46  29  52 SE7       30.21F
CORINTH        CLOUDY    45  27  49 S6        30.20S
GOLDN TRIANGLE CLOUDY    45  26  47 S8        30.22F
STARKVILLE     CLOUDY    45  28  53 S3        30.23S
TUPELO         CLOUDY    43  27  53 SE6       30.22S
$$

MSZ040-058-201200-
CENTRAL MISSISSIPPI

CITY           SKY/WX    TMP DP  RH WIND       PRES   REMARKS
JACKSON INTL   FAIR      37  23  56 CALM      30.21S
JACKSON HAWKNS MOCLDY    42  23  46 SE5       30.22S
MADISON        PTSUNNY   36  27  69 CALM      30.21S
MERIDIAN KEY   FAIR      36  28  73 CALM      30.25S
MERIDIAN NAS   FAIR      40  26  57 CALM      30.25S
RAYMOND          N/A     37  32  81 E3        30.21S
VICKSBURG VKS  PTSUNNY   45  28  53 SE5       30.21S
$$

MSZ059>079-201200-
SOUTH MISSISSIPPI

CITY           SKY/WX    TMP DP  RH WIND       PRES   REMARKS
COLUMBIA       MIX PCPN  39  32  75 CALM      30.27S
HATTIESBURG    MOCLDY    40  34  79 CALM      30.25R
LAUREL         FAIR      39  30  68 CALM      30.26R
MCCOMB         CLOUDY    45  24  43 SE3       30.21S
NATCHEZ        MOCLDY    45  27  49 SE7       30.20S
PINE BELT      FAIR      40  29  64 CALM      30.25R
$$

MSZ080>082-201200-
COASTAL MISSISSIPPI

CITY           SKY/WX    TMP DP  RH WIND       PRES   REMARKS
BILOXI         CLOUDY    43  35  71 CALM      30.24R
PASCAGOULA     FAIR      38  35  89 CALM      30.25S
GULFPORT       CLOUDY    43  36  76 CALM      30.24R
$$

LAZ007>009-015>016-023>026-201200-
NORTHEAST LOUISIANA

CITY           SKY/WX    TMP DP  RH WIND       PRES   REMARKS
BASTROP        CLOUDY    45  28  51 S3        30.18S
TALLULAH/VBURG FAIR      40  32  73 S7        30.20F
VIDALIA        FAIR      42  32  66 MISG      30.19S
$$



USA.gov is the U.S. government's official web portal to all federal, state and local government web resources and services.